| time (UTC) | temp F | wind direction | speed MPH | gust MPH | rain 1hr in | rain 24hr in | rain mn in | humidity % | barometer mb |
| 20260507003002 | 60 | 299 | 11.0 | 26.0 | 0.00 | 0.02 | 0.00 | 37 | 1016.3 |
| 20260507001500 | 61 | 300 | 18.0 | 26.0 | 0.00 | 0.02 | 0.00 | 33 | 1015.8 |
| 20260507000000 | 62 | 291 | 10.0 | 19.0 | 0.00 | 0.02 | 0.00 | 33 | 1015.5 |
| 20260506234501 | 63 | 306 | 5.0 | 12.0 | 0.00 | 0.02 | 0.00 | 34 | 1015.1 |
| 20260506233002 | 64 | 340 | 10.0 | 19.0 | 0.00 | 0.02 | 0.00 | 32 | 1015.0 |
| 20260506231500 | 64 | 301 | 9.0 | 17.0 | 0.00 | 0.02 | 0.00 | 32 | 1015.0 |
| 20260506230000 | 63 | 311 | 10.0 | 23.0 | 0.00 | 0.02 | 0.00 | 34 | 1014.8 |
| 20260506224500 | 61 | 274 | 11.0 | 17.0 | 0.00 | 0.02 | 0.00 | 33 | 1014.3 |
| 20260506223000 | 61 | 236 | 11.0 | 26.0 | 0.00 | 0.02 | 0.00 | 34 | 1014.2 |
| 20260506221501 | 63 | 259 | 16.0 | 27.0 | 0.00 | 0.02 | 0.00 | 29 | 1014.3 |
| 20260506220002 | 64 | 292 | 13.0 | 20.0 | 0.00 | 0.02 | 0.00 | 28 | 1013.9 |
| 20260506214500 | 64 | 234 | 18.0 | 33.0 | 0.00 | 0.02 | 0.00 | 30 | 1014.3 |
| 20260506213000 | 64 | 267 | 10.0 | 15.0 | 0.00 | 0.02 | 0.00 | 29 | 1013.9 |
| 20260506211501 | 63 | 302 | 10.0 | 17.0 | 0.00 | 0.02 | 0.00 | 31 | 1014.1 |
| 20260506210000 | 61 | 263 | 6.0 | 13.0 | 0.00 | 0.02 | 0.00 | 34 | 1014.4 |
| 20260506204500 | 62 | 271 | 12.0 | 23.0 | 0.00 | 0.02 | 0.00 | 32 | 1014.6 |
| 20260506201459 | 64 | 284 | 12.0 | 21.0 | 0.00 | 0.02 | 0.00 | 31 | 1014.4 |
| 20260506200000 | 63 | 265 | 12.0 | 21.0 | 0.00 | 0.03 | 0.00 | 32 | 1014.7 |
| 20260506194500 | 62 | 261 | 12.0 | 20.0 | 0.00 | 0.03 | 0.00 | 34 | 1014.8 |
| 20260506192959 | 62 | 220 | 9.0 | 14.0 | 0.00 | 0.03 | 0.00 | 34 | 1015.0 |
| 20260506191500 | 62 | 305 | 10.0 | 18.0 | 0.00 | 0.03 | 0.00 | 34 | 1015.2 |
| 20260506190002 | 62 | 254 | 13.0 | 21.0 | 0.00 | 0.03 | 0.00 | 35 | 1015.3 |
| 20260506183001 | 60 | 272 | 9.0 | 16.0 | 0.00 | 0.04 | 0.00 | 37 | 1015.6 |
| 20260506181500 | 59 | 276 | 10.0 | 20.0 | 0.00 | 0.04 | 0.00 | 38 | 1016.0 |
| 20260506172959 | 57 | 304 | 8.0 | 13.0 | 0.00 | 0.04 | 0.00 | 42 | 1016.2 |
| 20260506171459 | 56 | 287 | 9.0 | 17.0 | 0.00 | 0.04 | 0.00 | 43 | 1016.2 |
| 20260506165959 | 55 | 292 | 9.0 | 16.0 | 0.00 | 0.04 | 0.00 | 44 | 1016.2 |
| 20260506162959 | 54 | 296 | 9.0 | 16.0 | 0.00 | 0.04 | 0.00 | 46 | 1016.2 |
| 20260506161500 | 53 | 235 | 9.0 | 16.0 | 0.00 | 0.04 | 0.00 | 49 | 1016.3 |
| 20260506155959 | 52 | 293 | 9.0 | 15.0 | 0.00 | 0.04 | 0.00 | 51 | 1016.4 |
| 20260506154459 | 51 | 268 | 10.0 | 16.0 | 0.00 | 0.04 | 0.00 | 53 | 1016.3 |
| 20260506152959 | 50 | 237 | 11.0 | 17.0 | 0.00 | 0.04 | 0.00 | 53 | 1016.3 |
| 20260506151459 | 50 | 281 | 11.0 | 17.0 | 0.00 | 0.04 | 0.00 | 54 | 1016.3 |
| 20260506150002 | 49 | 292 | 11.0 | 17.0 | 0.00 | 0.04 | 0.00 | 55 | 1016.5 |
| 20260506142959 | 47 | 273 | 10.0 | 14.0 | 0.00 | 0.05 | 0.00 | 59 | 1016.6 |
| 20260506141458 | 47 | 275 | 7.0 | 13.0 | 0.00 | 0.05 | 0.00 | 63 | 1016.6 |
| 20260506140001 | 46 | 264 | 8.0 | 12.0 | 0.00 | 0.05 | 0.00 | 64 | 1016.7 |
| 20260506132959 | 42 | 275 | 6.0 | 9.0 | 0.00 | 0.05 | 0.00 | 75 | 1016.3 |
| 20260506131459 | 40 | 275 | 2.0 | 8.0 | 0.00 | 0.05 | 0.00 | 82 | 1016.3 |
| 20260506125958 | 39 | 322 | 1.0 | 3.0 | 0.00 | 0.05 | 0.00 | 83 | 1016.3 |
| 20260506124500 | 38 | 123 | 1.0 | 3.0 | 0.00 | 0.05 | 0.00 | 82 | 1016.2 |
| 20260506123000 | 38 | 55 | 2.0 | 4.0 | 0.00 | 0.05 | 0.00 | 81 | 1015.9 |
| 20260506121458 | 38 | 109 | 2.0 | 5.0 | 0.00 | 0.05 | 0.00 | 81 | 1015.7 |
| 20260506120000 | 38 | 101 | 2.0 | 4.0 | 0.00 | 0.05 | 0.00 | 81 | 1015.7 |
| 20260506114458 | 38 | 93 | 2.0 | 6.0 | 0.00 | 0.05 | 0.00 | 81 | 1015.6 |
| 20260506112957 | 38 | 86 | 3.0 | 5.0 | 0.00 | 0.05 | 0.00 | 80 | 1015.6 |
| 20260506111458 | 39 | 85 | 3.0 | 5.0 | 0.00 | 0.05 | 0.00 | 79 | 1015.6 |
| 20260506105959 | 40 | 71 | 2.0 | 3.0 | 0.00 | 0.05 | 0.00 | 77 | 1015.4 |
| 20260506104458 | 41 | 100 | 3.0 | 5.0 | 0.00 | 0.05 | 0.00 | 76 | 1015.1 |
| 20260506101458 | 42 | 78 | 1.0 | 2.0 | 0.00 | 0.05 | 0.00 | 74 | 1015.0 |
| 20260506100001 | 42 | 116 | 3.0 | 5.0 | 0.00 | 0.05 | 0.00 | 74 | 1014.9 |
| 20260506094459 | 43 | 138 | 1.0 | 3.0 | 0.00 | 0.05 | 0.00 | 74 | 1014.5 |
| 20260506092959 | 43 | 281 | 1.0 | 3.0 | 0.00 | 0.05 | 0.00 | 74 | 1014.6 |
| 20260506091459 | 44 | 273 | 5.0 | 7.0 | 0.00 | 0.05 | 0.00 | 74 | 1014.4 |
| 20260506085959 | 44 | 290 | 4.0 | 7.0 | 0.00 | 0.05 | 0.00 | 74 | 1014.4 |
| 20260506084459 | 45 | 265 | 5.0 | 6.0 | 0.00 | 0.05 | 0.00 | 74 | 1014.4 |
| 20260506082958 | 46 | 253 | 4.0 | 6.0 | 0.00 | 0.05 | 0.00 | 73 | 1014.5 |
| 20260506081459 | 47 | 277 | 4.0 | 7.0 | 0.00 | 0.05 | 0.00 | 72 | 1014.5 |
| 20260506071457 | 49 | 258 | 6.0 | 9.0 | 0.00 | 0.05 | 0.00 | 64 | 1014.6 |
| 20260506061504 | 51 | 270 | 5.0 | 9.0 | 0.00 | 0.05 | 0.00 | 62 | 1014.4 |
| 20260506044500 | 50 | 340 | 7.0 | 14.0 | 0.02 | 0.05 | 0.05 | 63 | 1014.3 |
| 20260506043002 | 50 | 314 | 7.0 | 13.0 | 0.02 | 0.05 | 0.05 | 64 | 1014.3 |
| 20260506041504 | 49 | 306 | 4.0 | 12.0 | 0.02 | 0.05 | 0.05 | 67 | 1013.8 |
| 20260506040003 | 50 | 316 | 7.0 | 13.0 | 0.02 | 0.05 | 0.05 | 68 | 1014.1 |
| 20260506034501 | 51 | 348 | 7.0 | 22.0 | 0.00 | 0.03 | 0.03 | 64 | 1013.5 |
| 20260506033001 | 51 | 275 | 8.0 | 19.0 | 0.00 | 0.03 | 0.03 | 62 | 1013.7 |
| 20260506031501 | 52 | 319 | 7.0 | 21.0 | 0.00 | 0.03 | 0.03 | 61 | 1013.1 |
| 20260506030003 | 52 | 321 | 10.0 | 20.0 | 0.00 | 0.03 | 0.03 | 61 | 1012.6 |
| 20260506024501 | 54 | 305 | 10.0 | 23.0 | 0.00 | 0.03 | 0.03 | 58 | 1012.1 |
| 20260506023001 | 55 | 252 | 5.0 | 8.0 | 0.00 | 0.03 | 0.03 | 60 | 1011.6 |
| 20260506021501 | 55 | 252 | 4.0 | 7.0 | 0.00 | 0.03 | 0.03 | 58 | 1011.3 |
| 20260506020000 | 56 | 245 | 5.0 | 8.0 | 0.00 | 0.03 | 0.03 | 56 | 1011.2 |
| 20260506014459 | 57 | 226 | 5.0 | 10.0 | 0.00 | 0.03 | 0.03 | 54 | 1010.7 |
| 20260506012959 | 58 | 229 | 6.0 | 10.0 | 0.00 | 0.03 | 0.03 | 53 | 1010.9 |
| 20260506011500 | 57 | 238 | 5.0 | 9.0 | 0.00 | 0.03 | 0.03 | 54 | 1010.7 |
| 20260506010004 | 57 | 234 | 6.0 | 8.0 | 0.00 | 0.03 | 0.03 | 55 | 1010.7 |